When you browse on this site, cookies collect data to enhance your experience and personalize the content and advertising you see.
Visit our Privacy Policy to learn more. By continuing to use the site, you agree to this use of cookies and data.
  • In Romania
  • List of Countries
  • For 7 days
  • Water Temperature
  • Satellite Maps
  • Weather Map
  • Weather Widgets
  • user-avatar
    Login

    Hourly Weather Sari

    Today, 23 January, Wednesday

    Time Temperature Precipitation Wind Pressure Humidity
    00:00 +10°C° 0 mm 1 mps 760 mmHg 51%
    01:00 +9°C° 0 mm 1 mps 760 mmHg 50%
    02:00 +9°C° 0 mm 1 mps 760 mmHg 49%
    03:00 +9°C° 0 mm 1 mps 760 mmHg 47%
    04:00 +9°C° 0 mm 1 mps 760 mmHg 46%
    05:00 +9°C° 0 mm 1 mps 761 mmHg 45%
    06:00 +8°C° 0 mm 1 mps 761 mmHg 44%
    07:00 +8°C° 0 mm 1 mps 762 mmHg 43%
    08:00 +10°C° 0 mm 1 mps 762 mmHg 41%
    09:00 +11°C° 0 mm 1 mps 762 mmHg 38%
    10:00 +12°C° 0 mm 1 mps 763 mmHg 36%
    11:00 +13°C° 0 mm 1 mps 763 mmHg 35%
    12:00 +14°C° 0 mm 1 mps 763 mmHg 34%
    13:00 +15°C° 0 mm 2 mps 763 mmHg 33%
    14:00 +15°C° 0 mm 2 mps 763 mmHg 37%
    15:00 +15°C° 0 mm 2 mps 763 mmHg 40%
    16:00 +15°C° 0 mm 2 mps 762 mmHg 43%
    17:00 +13°C° 0 mm 2 mps 763 mmHg 49%
    18:00 +12°C° 0 mm 2 mps 763 mmHg 56%
    19:00 +10°C° 0 mm 2 mps 764 mmHg 62%
    20:00 +10°C° 0 mm 1 mps 764 mmHg 61%
    21:00 +10°C° 0 mm 1 mps 764 mmHg 60%
    22:00 +10°C° 0 mm 1 mps 764 mmHg 59%
    23:00 +10°C° 0 mm 1 mps 764 mmHg 58%

    Tomorrow, 24 January, Thursday

    Time Temperature Precipitation Wind Pressure Humidity
    00:00 +9°C° 0 mm 1 mps 764 mmHg 57%
    01:00 +9°C° 0 mm 1 mps 764 mmHg 56%
    02:00 +9°C° 0 mm 1 mps 764 mmHg 55%
    03:00 +9°C° 0 mm 1 mps 764 mmHg 53%
    04:00 +9°C° 0 mm 1 mps 764 mmHg 51%
    05:00 +9°C° 0 mm 1 mps 764 mmHg 49%
    06:00 +8°C° 0 mm 1 mps 764 mmHg 48%
    07:00 +8°C° 0 mm 1 mps 764 mmHg 46%
    08:00 +10°C° 0 mm 1 mps 764 mmHg 43%
    09:00 +12°C° 0 mm 1 mps 764 mmHg 40%
    10:00 +13°C° 0 mm 1 mps 764 mmHg 37%
    11:00 +15°C° 0 mm 2 mps 763 mmHg 36%
    12:00 +16°C° 0 mm 2 mps 763 mmHg 35%
    13:00 +17°C° 0 mm 3 mps 762 mmHg 34%
    14:00 +17°C° 0 mm 3 mps 762 mmHg 36%
    15:00 +17°C° 0 mm 3 mps 762 mmHg 38%
    16:00 +17°C° 0 mm 3 mps 762 mmHg 40%
    17:00 +15°C° 0 mm 2 mps 762 mmHg 44%
    18:00 +14°C° 0 mm 2 mps 762 mmHg 47%
    19:00 +13°C° 0 mm 1 mps 762 mmHg 50%
    20:00 +12°C° 0 mm 1 mps 762 mmHg 49%
    21:00 +12°C° 0 mm 1 mps 762 mmHg 47%
    22:00 +12°C° 0 mm 2 mps 762 mmHg 45%
    23:00 +10°C° 0 mm 2 mps 762 mmHg 44%

    Day after tomorrow, 25 January, Friday

    Time Temperature Precipitation Wind Pressure Humidity
    00:00 +10°C° 0 mm 2 mps 761 mmHg 43%
    01:00 +10°C° 0 mm 2 mps 761 mmHg 42%
    02:00 +10°C° 0 mm 2 mps 761 mmHg 41%
    03:00 +10°C° 0 mm 2 mps 760 mmHg 41%
    04:00 +10°C° 0 mm 2 mps 760 mmHg 40%
    05:00 +10°C° 0 mm 2 mps 760 mmHg 40%
    06:00 +9°C° 0 mm 2 mps 760 mmHg 40%
    07:00 +9°C° 0 mm 2 mps 760 mmHg 39%
    08:00 +12°C° 0 mm 2 mps 760 mmHg 38%
    09:00 +14°C° 0 mm 2 mps 760 mmHg 38%
    10:00 +15°C° 0 mm 2 mps 760 mmHg 37%
    11:00 +17°C° 0 mm 2 mps 759 mmHg 34%
    12:00 +19°C° 0 mm 1 mps 759 mmHg 32%
    13:00 +20°C° 0 mm 1 mps 759 mmHg 30%
    14:00 +20°C° 0 mm 1 mps 758 mmHg 31%
    15:00 +20°C° 0 mm 1 mps 758 mmHg 32%
    16:00 +20°C° 0 mm 1 mps 758 mmHg 33%
    17:00 +19°C° 0 mm 1 mps 758 mmHg 34%
    18:00 +17°C° 0 mm 2 mps 758 mmHg 35%
    19:00 +15°C° 0 mm 2 mps 758 mmHg 36%
    20:00 +15°C° 0 mm 2 mps 759 mmHg 35%
    21:00 +15°C° 0 mm 2 mps 759 mmHg 33%
    22:00 +15°C° 0 mm 2 mps 759 mmHg 32%
    23:00 +14°C° 0 mm 3 mps 758 mmHg 32%

    26 January, Saturday

    Time Temperature Precipitation Wind Pressure Humidity
    00:00 +13°C° 0 mm 3 mps 758 mmHg 32%
    01:00 +13°C° 0 mm 3 mps 758 mmHg 32%
    02:00 +13°C° 0 mm 3 mps 758 mmHg 32%
    03:00 +13°C° 0 mm 3 mps 758 mmHg 33%
    04:00 +14°C° 0 mm 2 mps 758 mmHg 33%
    05:00 +14°C° 0 mm 2 mps 758 mmHg 34%
    06:00 +14°C° 0 mm 2 mps 758 mmHg 34%
    07:00 +14°C° 0 mm 2 mps 758 mmHg 35%
    08:00 +15°C° 0 mm 2 mps 758 mmHg 34%
    09:00 +18°C° 0 mm 1 mps 758 mmHg 33%
    10:00 +19°C° 0 mm 1 mps 759 mmHg 33%
    11:00 +21°C° 0 mm 1 mps 758 mmHg 31%
    12:00 +22°C° 0 mm 1 mps 758 mmHg 29%
    13:00 +23°C° 0 mm 2 mps 758 mmHg 28%
    14:00 +23°C° 0 mm 2 mps 757 mmHg 30%
    15:00 +23°C° 0 mm 2 mps 757 mmHg 31%
    16:00 +23°C° 0 mm 1 mps 757 mmHg 33%
    17:00 +20°C° 0 mm 2 mps 757 mmHg 35%
    18:00 +19°C° 0 mm 2 mps 757 mmHg 36%
    19:00 +17°C° 0 mm 2 mps 758 mmHg 37%
    20:00 +17°C° 0 mm 2 mps 758 mmHg 36%
    21:00 +17°C° 0 mm 2 mps 758 mmHg 35%
    22:00 +16°C° 0 mm 3 mps 758 mmHg 34%
    23:00 +16°C° 0 mm 3 mps 757 mmHg 33%

    27 January, Sunday

    Time Temperature Precipitation Wind Pressure Humidity
    00:00 +16°C° 0 mm 3 mps 757 mmHg 31%
    01:00 +16°C° 0 mm 3 mps 757 mmHg 29%
    02:00 +17°C° 0 mm 3 mps 756 mmHg 28%
    03:00 +17°C° 0 mm 3 mps 756 mmHg 28%
    04:00 +17°C° 0 mm 4 mps 756 mmHg 27%
    05:00 +17°C° 0 mm 3 mps 755 mmHg 28%
    06:00 +17°C° 0 mm 3 mps 755 mmHg 30%
    07:00 +17°C° 0 mm 3 mps 755 mmHg 31%
    08:00 +18°C° 0 mm 3 mps 755 mmHg 32%
    09:00 +20°C° 0 mm 2 mps 756 mmHg 34%
    10:00 +23°C° 0 mm 2 mps 756 mmHg 35%
    11:00 +24°C° 0 mm 2 mps 756 mmHg 33%
    12:00 +26°C° 0 mm 2 mps 755 mmHg 30%
    13:00 +28°C° 0 mm 2 mps 755 mmHg 27%
    14:00 +27°C° 0 mm 2 mps 755 mmHg 29%
    15:00 +26°C° 0 mm 2 mps 755 mmHg 31%
    16:00 +25°C° 0 mm 2 mps 755 mmHg 33%
    17:00 +23°C° 0 mm 2 mps 755 mmHg 36%
    18:00 +22°C° 0 mm 1 mps 755 mmHg 38%
    19:00 +20°C° 0 mm 1 mps 756 mmHg 40%
    20:00 +19°C° 0 mm 1 mps 756 mmHg 41%
    21:00 +19°C° 0 mm 1 mps 756 mmHg 41%
    22:00 +18°C° 0 mm 2 mps 756 mmHg 41%
    23:00 +18°C° 0 mm 2 mps 756 mmHg 41%

    28 January, Monday

    Time Temperature Precipitation Wind Pressure Humidity
    00:00 +18°C° 0 mm 2 mps 755 mmHg 41%
    01:00 +18°C° 0 mm 2 mps 755 mmHg 41%
    02:00 +18°C° 0 mm 2 mps 755 mmHg 42%
    03:00 +18°C° 0 mm 2 mps 755 mmHg 42%
    04:00 +18°C° 0 mm 2 mps 755 mmHg 43%
    05:00 +19°C° 0 mm 1 mps 755 mmHg 44%
    06:00 +19°C° 0 mm 1 mps 755 mmHg 45%
    07:00 +19°C° 0 mm 1 mps 755 mmHg 46%
    08:00 +19°C° 0 mm 1 mps 755 mmHg 47%
    09:00 +19°C° 0 mm 1 mps 755 mmHg 49%
    10:00 +18°C° 0 mm 2 mps 755 mmHg 51%
    11:00 +19°C° 0 mm 2 mps 755 mmHg 49%
    12:00 +20°C° 0 mm 3 mps 754 mmHg 47%
    13:00 +21°C° 0 mm 4 mps 754 mmHg 45%
    14:00 +21°C° 0 mm 3 mps 754 mmHg 45%
    15:00 +21°C° 0 mm 3 mps 754 mmHg 46%
    16:00 +21°C° 0 mm 3 mps 753 mmHg 46%
    17:00 +19°C° 0 mm 3 mps 753 mmHg 49%
    18:00 +18°C° 0 mm 2 mps 754 mmHg 52%
    19:00 +17°C° 0 mm 2 mps 754 mmHg 55%
    20:00 +16°C° 0.1 mm 2 mps 754 mmHg 63%
    21:00 +15°C° 0.1 mm 1 mps 755 mmHg 71%
    22:00 +14°C° 0.1 mm 1 mps 755 mmHg 78%
    23:00 +14°C° 0.2 mm 1 mps 756 mmHg 75%
    Show more